Weather History for Chicopee, MA

Change the Weather History Date:

Monday, February 11, 2013

  Actual Average Record
Temperature  
Mean Temperature 22 °F -  
Max Temperature 37 °F 34 °F 53 °F (2009)
Min Temperature 8 °F 17 °F -12 °F (2011)
Degree Days  
Heating Degree Days 44    
Moisture  
Dew Point 30 °F    
Average Humidity 95    
Maximum Humidity 100    
Minimum Humidity 74    
Precipitation  
Precipitation 0.17 in - - ()
Sea Level Pressure  
Sea Level Pressure 29.82 in    
Wind  
Wind Speed 2 mph (NW)    
Max Wind Speed 12 mph    
Max Gust Speed -    
Visibility 2 miles    
Events Fog , Rain , Snow    
Averages and records for this station are not official NWS values.
T = Trace of Precipitation, MM = Missing Value Source: NWS Daily Summary

Daily Weather History Graph

Daily Weather History Graph

Search for Another Location

Airport:

Trip Planner

Search our weather history database for the weather conditions in past years. The results will help you decide how hot, cold, wet, or windy it might be!

Date:

Astronomy

Feb. 11, 2013 Rise Set
Actual Time 6:51 AM EST 5:17 PM EST
Civil Twilight 6:22 AM EST 5:46 PM EST
Nautical Twilight 5:49 AM EST 6:19 PM EST
Astronomical Twilight 5:16 AM EST 6:52 PM EST
Moon 7:11 AM EST (2/11) 7:14 PM EST (2/11)
Length of Visible Light 11h 24m
Length of Day
10h 26m
Waxing Crescent, 3% of the Moon is Illuminated
Feb 11
Waxing Crescent
Feb 17
First Quarter
Feb 25
Full
Mar 4
Last Quarter
Mar 11
New

Hourly Weather History & Observations

Time (EST) Temp. Windchill Dew Point Humidity Pressure Visibility Wind Dir Wind Speed Gust Speed Precip Events Conditions
12:55 AM 8.2 °F - 3.7 °F 82% 30.33 in 10.0 mi Calm Calm - N/A   Overcast
1:55 AM 12.0 °F - 7.3 °F 81% 30.30 in 10.0 mi Calm Calm - N/A   Overcast
2:55 AM 14.9 °F - 8.4 °F 76% 30.28 in 10.0 mi Calm Calm - N/A   Overcast
3:55 AM 15.8 °F 10.2 °F 10.6 °F 80% 30.24 in 10.0 mi NE 3.5 mph - N/A   Clear
4:55 AM 18.3 °F - 11.3 °F 74% 30.24 in 10.0 mi Calm Calm - N/A   Clear
5:55 AM 19.8 °F 14.7 °F 14.2 °F 79% 30.22 in 10.0 mi NE 3.5 mph - N/A   Clear
6:24 AM 19.4 °F - 15.8 °F 86% 30.21 in 10.0 mi Calm Calm - N/A Snow Light Snow
6:28 AM 21.2 °F 16.4 °F 15.8 °F 80% 30.21 in 1.5 mi West 3.5 mph - N/A Snow Light Snow
6:38 AM 21.2 °F - 17.6 °F 86% 30.20 in 1.8 mi Calm Calm - N/A Snow Light Snow
6:55 AM 21.2 °F - 15.8 °F 80% 30.19 in 1.8 mi Calm Calm - N/A Snow Light Snow
7:20 AM 21.2 °F 16.4 °F 17.6 °F 86% 30.17 in 4.0 mi North 3.5 mph - N/A Snow Light Snow
7:55 AM 23.0 °F 17.0 °F 19.4 °F 86% 30.13 in 1.8 mi NE 4.6 mph - N/A Snow Light Snow
8:16 AM 23.0 °F - 21.2 °F 93% 30.12 in 3.0 mi Calm Calm - N/A Snow Light Snow
8:46 AM 24.8 °F - 21.2 °F 86% 30.10 in 4.0 mi Calm Calm - N/A   Light Ice Pellets
8:55 AM 24.8 °F - 23.0 °F 93% 30.09 in 4.0 mi Calm Calm - N/A   Light Ice Pellets
9:12 AM 24.8 °F 20.5 °F 24.8 °F 100% 30.09 in 4.0 mi WNW 3.5 mph - N/A Rain Light Freezing Rain
9:48 AM 26.6 °F - 26.6 °F 100% 30.06 in 2.0 mi Calm Calm - N/A Rain Light Freezing Rain
9:55 AM 26.6 °F - 26.6 °F 100% 30.06 in 2.0 mi Calm Calm - N/A Rain Light Freezing Rain
10:35 AM 28.4 °F - 28.4 °F 100% 30.01 in 1.5 mi Calm Calm - N/A Rain Light Freezing Rain
10:55 AM 30.2 °F - 28.4 °F 93% 29.99 in 1.5 mi Calm Calm - N/A   Light Freezing Drizzle
11:55 AM 32.0 °F - 30.2 °F 93% 29.94 in 1.8 mi Calm Calm - N/A   Light Freezing Drizzle
12:40 PM 32.0 °F - 32.0 °F 100% 29.88 in 2.0 mi Calm Calm - N/A   Light Freezing Drizzle
12:49 PM 32.0 °F - 32.0 °F 100% 29.86 in 1.8 mi Calm Calm - N/A   Overcast
12:55 PM 32.0 °F 28.7 °F 32.0 °F 100% 29.86 in 1.8 mi SSW 3.5 mph - N/A   Overcast
1:55 PM 32.0 °F 28.7 °F 32.0 °F 100% 29.82 in 1.2 mi North 3.5 mph - N/A   Overcast
2:36 PM 32.0 °F - 32.0 °F 100% 29.80 in 1.0 mi Calm Calm - N/A   Overcast
2:49 PM 32.0 °F - 32.0 °F 100% 29.79 in 0.8 mi Calm Calm - N/A   Overcast
2:53 PM 32.0 °F - 32.0 °F 100% 29.79 in 0.8 mi Calm Calm - N/A   Overcast
2:55 PM 32.9 °F - 32.4 °F 98% 29.79 in 0.5 mi Calm Calm - N/A Fog Fog
3:37 PM 33.8 °F 30.8 °F 33.8 °F 100% 29.76 in 0.2 mi South 3.5 mph - N/A Fog Fog
3:42 PM 33.8 °F - 33.8 °F 100% 29.75 in 0.2 mi Calm Calm - N/A Fog Fog
3:55 PM 33.6 °F 30.6 °F 33.1 °F 98% 29.74 in 0.2 mi SSE 3.5 mph - N/A Fog Fog
4:55 PM 33.6 °F - 33.3 °F 99% 29.72 in 0.2 mi Calm Calm - N/A Fog Fog
5:55 PM 33.4 °F - 33.1 °F 99% 29.72 in 0.2 mi Calm Calm - N/A Fog Fog
6:20 PM 33.8 °F 29.6 °F 32.0 °F 93% 29.70 in 0.2 mi SSE 4.6 mph - N/A Fog Fog
6:21 PM 33.8 °F 28.6 °F 32.0 °F 93% 29.70 in 0.2 mi SSE 5.8 mph - N/A Fog Fog
6:36 PM 35.6 °F 28.6 °F 33.8 °F 93% 29.68 in 0.2 mi SSE 9.2 mph - N/A Fog Fog
6:37 PM 35.6 °F 28.6 °F 33.8 °F 93% 29.68 in 0.2 mi SSE 9.2 mph - N/A Fog Fog
6:42 PM 35.6 °F 28.6 °F 33.8 °F 93% 29.68 in 0.5 mi SSE 9.2 mph - N/A Fog Fog
6:46 PM 35.6 °F 28.6 °F 33.8 °F 93% 29.68 in 0.5 mi SSE 9.2 mph - N/A Fog Fog
6:55 PM 35.8 °F 28.8 °F 35.2 °F 98% 29.68 in 0.5 mi SSE 9.2 mph - N/A Fog Fog
7:15 PM 35.6 °F 31.7 °F 35.6 °F 100% 29.68 in 0.2 mi West 4.6 mph - N/A Fog Fog
7:25 PM 35.6 °F - 35.6 °F 100% 29.67 in 0.2 mi Calm Calm - N/A Fog Fog
7:32 PM 35.6 °F - 33.8 °F 93% 29.66 in 0.2 mi Calm Calm - N/A Fog Fog
7:33 PM 35.6 °F - 33.8 °F 93% 29.66 in 0.2 mi Calm Calm - N/A Fog Fog
7:55 PM 34.0 °F - 33.4 °F 98% 29.66 in 0.2 mi Calm Calm - N/A Fog Fog
8:00 PM 33.8 °F - 33.8 °F 100% 29.66 in 0.2 mi Calm Calm - N/A Fog Fog
8:07 PM 33.8 °F - 33.8 °F 100% 29.65 in 0.5 mi Calm Calm - N/A Fog Fog
8:12 PM 33.8 °F - 33.8 °F 100% 29.65 in 0.2 mi Calm Calm - N/A Fog Fog
8:18 PM 33.8 °F - 33.8 °F 100% 29.65 in 0.2 mi Calm Calm - N/A Fog Fog
8:21 PM 33.8 °F - 33.8 °F 100% 29.65 in 0.2 mi Calm Calm - N/A Fog Fog
8:52 PM 33.8 °F - 33.8 °F 100% 29.66 in 0.2 mi Calm Calm - N/A Fog Fog
8:53 PM 33.8 °F - 33.8 °F 100% 29.67 in 0.2 mi Calm Calm - N/A Fog Fog
8:55 PM 34.0 °F 28.8 °F 33.4 °F 98% 29.66 in 0.2 mi NW 5.8 mph - N/A Fog Fog
8:56 PM 33.8 °F 29.6 °F 33.8 °F 100% 29.66 in 0.2 mi NW 4.6 mph - N/A Fog Fog
9:04 PM 33.8 °F 30.8 °F 33.8 °F 100% 29.67 in 0.2 mi NW 3.5 mph - N/A Fog Fog
9:14 PM 33.8 °F 27.7 °F 33.8 °F 100% 29.67 in 0.2 mi NW 6.9 mph - N/A Fog Fog
9:19 PM 35.6 °F 32.8 °F 33.8 °F 93% 29.67 in 0.2 mi NW 3.5 mph - N/A Fog Fog
9:36 PM 33.8 °F - 33.8 °F 100% 29.66 in 0.2 mi Calm Calm - N/A Fog Fog
9:38 PM 33.8 °F - 33.8 °F 100% 29.66 in 0.2 mi Calm Calm - N/A Fog Fog
9:49 PM 33.8 °F - 33.8 °F 100% 29.66 in 0.2 mi Calm Calm - N/A Fog Fog
9:51 PM 33.8 °F - 33.8 °F 100% 29.66 in 0.2 mi Calm Calm - N/A Fog Fog
9:55 PM 33.8 °F - 33.3 °F 98% 29.65 in 0.2 mi Calm Calm - N/A Fog Fog
10:29 PM 33.8 °F - 33.8 °F 100% 29.67 in 0.2 mi Calm Calm - N/A Fog Fog
10:42 PM 33.8 °F 27.7 °F 33.8 °F 100% 29.67 in 0.2 mi NW 6.9 mph - N/A Fog Fog
10:46 PM 33.8 °F 28.6 °F 33.8 °F 100% 29.68 in 0.5 mi NNW 5.8 mph - N/A Fog Fog
10:47 PM 33.8 °F 29.6 °F 33.8 °F 100% 29.68 in 0.5 mi NNW 4.6 mph - N/A Fog Fog
10:51 PM 35.6 °F 30.7 °F 33.8 °F 93% 29.67 in 0.5 mi NNW 5.8 mph - N/A Fog Fog
10:55 PM 35.1 °F 31.0 °F 34.5 °F 98% 29.68 in 0.5 mi NNW 4.6 mph - N/A Fog Fog
10:57 PM 35.6 °F 31.7 °F 33.8 °F 93% 29.68 in 0.5 mi NNW 4.6 mph - N/A Fog Fog
10:58 PM 35.6 °F 30.7 °F 33.8 °F 93% 29.68 in 0.8 mi NW 5.8 mph - N/A   Mostly Cloudy
11:00 PM 35.6 °F 29.9 °F 35.6 °F 100% 29.68 in 1.0 mi NW 6.9 mph - N/A   Overcast
11:02 PM 35.6 °F 29.9 °F 35.6 °F 100% 29.68 in 1.2 mi NW 6.9 mph - N/A   Overcast
11:03 PM 35.6 °F 30.7 °F 35.6 °F 100% 29.68 in 1.5 mi NW 5.8 mph - N/A   Overcast
11:04 PM 35.6 °F 30.7 °F 35.6 °F 100% 29.68 in 2.0 mi NNW 5.8 mph - N/A   Overcast
11:05 PM 35.6 °F 30.7 °F 35.6 °F 100% 29.68 in 2.5 mi NNW 5.8 mph - N/A   Overcast
11:06 PM 35.6 °F 30.7 °F 35.6 °F 100% 29.68 in 4.0 mi NNW 5.8 mph - N/A   Overcast
11:10 PM 35.6 °F 31.7 °F 35.6 °F 100% 29.68 in 8.0 mi NW 4.6 mph - N/A   Overcast
11:55 PM 37.0 °F 29.3 °F 36.9 °F 99% 29.67 in 10.0 mi NW 11.5 mph - N/A   Overcast